Crestview, FL

4:56 AM CDT on September 24, 2017 (GMT -0500)
Sikes

Weather History for KCEW - August, 2013

Change the Weather History Date:

Tuesday, August 20, 2013

  Actual Average Record
Temperature  
Mean Temperature 80 °F -  
Max Temperature 88 °F 92 °F 100 °F (1990)
Min Temperature 73 °F 69 °F 65 °F (1976)
Cooling Degree Days 14    
Growing Degree Days 30 (Base 50)    
Moisture  
Dew Point 73 °F    
Average Humidity 91    
Maximum Humidity 100    
Minimum Humidity 67    
Precipitation  
Precipitation 0.24 in - - ()
Sea Level Pressure  
Sea Level Pressure 30.07 in    
Wind  
Wind Speed 2 mph (ENE)    
Max Wind Speed 12 mph    
Max Gust Speed -    
Visibility 7 miles    
Events Fog , Rain , Thunderstorm    
Averages and records for this station are not official NWS values.
T = Trace of Precipitation, MM = Missing Value Source: NWS Daily Summary

Daily Weather History Graph

Daily Weather History Graph

Search for Another Location

Airport or City:

Trip Planner

Search our weather history database for the weather conditions in past years. The results will help you decide how hot, cold, wet, or windy it might be!

Date:

Astronomy

Aug. 20, 2013 Rise Set
Actual Time 6:15 AM CDT 7:22 PM CDT
Civil Twilight 5:50 AM CDT 7:47 PM CDT
Nautical Twilight 5:20 AM CDT 8:17 PM CDT
Astronomical Twilight 4:49 AM CDT 8:48 PM CDT
Moon 6:58 PM CDT (8/20) 5:43 AM CDT (8/20)
Length of Visible Light 13h 57m
Length of Day
13h 07m
Full, 100% of the Moon is Illuminated
Aug 20
Full
Aug 20
Full
Aug 28
Last Quarter
Sep 5
New
Sep 12
First Quarter

Hourly Weather History & Observations

Time (CDT) Temp. Heat Index Dew Point Humidity Pressure Visibility Wind Dir Wind Speed Gust Speed Precip Events Conditions
12:53 AM 73.9 °F - 72.0 °F 93% 30.04 in 10.0 mi Calm Calm - N/A   Scattered Clouds
1:01 AM 73.4 °F - 71.6 °F 94% 30.05 in 10.0 mi Calm Calm - N/A   Mostly Cloudy
1:13 AM 75.2 °F - 71.6 °F 89% 30.05 in 10.0 mi Calm Calm - N/A   Scattered Clouds
1:53 AM 73.9 °F - 72.0 °F 93% 30.04 in 9.0 mi Calm Calm - N/A   Clear
2:53 AM 73.9 °F - 72.0 °F 93% 30.03 in 9.0 mi ENE 3.5 mph - N/A   Clear
3:42 AM 73.4 °F - 71.6 °F 94% 30.02 in 7.0 mi NNE 3.5 mph - N/A   Scattered Clouds
3:53 AM 73.9 °F - 72.0 °F 93% 30.02 in 7.0 mi Calm Calm - N/A   Mostly Cloudy
4:02 AM 73.4 °F - 73.4 °F 100% 30.03 in 1.8 mi Calm Calm - N/A   Overcast
4:08 AM 73.4 °F - 73.4 °F 100% 30.02 in 0.5 mi Calm Calm - N/A Fog Fog
4:53 AM 73.9 °F - 73.0 °F 97% 30.01 in 0.5 mi Calm Calm - N/A Fog Fog
5:53 AM 73.9 °F - 72.0 °F 93% 30.02 in 0.8 mi Calm Calm - N/A   Mist
6:00 AM 73.4 °F - 71.6 °F 94% 30.03 in 1.2 mi Calm Calm - N/A   Overcast
6:24 AM 73.4 °F - 71.6 °F 94% 30.04 in 0.8 mi Calm Calm - N/A   Overcast
6:34 AM 73.4 °F - 71.6 °F 94% 30.04 in 2.0 mi Calm Calm - N/A   Overcast
6:42 AM 73.4 °F - 71.6 °F 94% 30.04 in 4.0 mi Calm Calm - N/A   Overcast
6:53 AM 73.0 °F - 72.0 °F 96% 30.04 in 6.0 mi Calm Calm - N/A   Mostly Cloudy
7:05 AM 73.4 °F - 71.6 °F 94% 30.06 in 1.8 mi East 3.5 mph - N/A   Mostly Cloudy
7:09 AM 73.4 °F - 71.6 °F 94% 30.06 in 0.5 mi East 3.5 mph - N/A Fog Fog
7:30 AM 73.4 °F - 71.6 °F 94% 30.07 in 1.0 mi ENE 3.5 mph - N/A   Overcast
7:37 AM 73.4 °F - 73.4 °F 100% 30.07 in 3.0 mi Calm Calm - N/A   Overcast
7:53 AM 75.0 °F - 73.0 °F 94% 30.07 in 8.0 mi Calm Calm - N/A   Overcast
8:26 AM 78.8 °F - 73.4 °F 83% 30.09 in 10.0 mi East 4.6 mph - N/A   Mostly Cloudy
8:37 AM 80.6 °F 85.4 °F 73.4 °F 79% 30.09 in 10.0 mi ESE 5.8 mph - N/A   Mostly Cloudy
8:53 AM 81.0 °F 86.2 °F 73.9 °F 79% 30.09 in 10.0 mi East 5.8 mph - N/A   Mostly Cloudy
9:53 AM 81.0 °F 86.2 °F 73.9 °F 79% 30.10 in 10.0 mi ESE 5.8 mph - N/A   Mostly Cloudy
10:53 AM 86.0 °F 93.8 °F 73.9 °F 67% 30.10 in 10.0 mi Variable 4.6 mph - N/A   Overcast
11:53 AM 84.0 °F 91.2 °F 73.9 °F 72% 30.09 in 10.0 mi SW 11.5 mph - N/A Thunderstorm Thunderstorm
12:01 PM 82.4 °F 88.2 °F 73.4 °F 74% 30.09 in 10.0 mi SW 11.5 mph - N/A Thunderstorm Thunderstorm
12:17 PM 80.6 °F 85.4 °F 73.4 °F 79% 30.09 in 1.8 mi Variable 4.6 mph - 0.04 in Rain , Thunderstorm Light Thunderstorms and Rain
12:42 PM 77.0 °F - 73.4 °F 89% 30.10 in 3.0 mi NNW 8.1 mph - 0.18 in Rain , Thunderstorm Light Thunderstorms and Rain
12:53 PM 78.1 °F - 73.0 °F 84% 30.08 in 10.0 mi North 3.5 mph - 0.18 in Thunderstorm Thunderstorm
1:53 PM 75.9 °F - 73.9 °F 94% 30.08 in 10.0 mi East 4.6 mph - 0.01 in Thunderstorm Mostly Cloudy
2:00 PM 75.2 °F - 73.4 °F 94% 30.09 in 10.0 mi ENE 4.6 mph - 0.00 in Rain Light Rain
2:13 PM 75.2 °F - 73.4 °F 94% 30.09 in 8.0 mi ENE 3.5 mph - 0.00 in Rain , Thunderstorm Light Rain
2:53 PM 75.0 °F - 73.0 °F 94% 30.09 in 5.0 mi Calm Calm - 0.05 in Rain , Thunderstorm Rain
3:31 PM 75.2 °F - 73.4 °F 94% 30.09 in 10.0 mi NNE 3.5 mph - 0.00 in Rain Light Rain
3:46 PM 75.2 °F - 73.4 °F 94% 30.10 in 10.0 mi NE 3.5 mph - 0.00 in Rain Light Rain
3:53 PM 75.9 °F - 73.0 °F 91% 30.09 in 10.0 mi NE 4.6 mph - 0.00 in Rain , Thunderstorm Light Rain
4:03 PM 75.2 °F - 73.4 °F 94% 30.10 in 10.0 mi ENE 4.6 mph - 0.00 in Rain , Thunderstorm Light Rain
4:11 PM 75.2 °F - 73.4 °F 94% 30.10 in 10.0 mi East 5.8 mph - 0.00 in Rain Light Rain
4:27 PM 75.2 °F - 73.4 °F 94% 30.09 in 10.0 mi Calm Calm - 0.00 in Rain Light Rain
4:53 PM 75.9 °F - 73.0 °F 91% 30.08 in 10.0 mi East 3.5 mph - 0.00 in   Partly Cloudy
5:30 PM 75.2 °F - 73.4 °F 94% 30.10 in 10.0 mi Calm Calm - 0.00 in   Mostly Cloudy
5:53 PM 75.9 °F - 73.0 °F 91% 30.08 in 10.0 mi Calm Calm - 0.00 in   Mostly Cloudy
6:13 PM 75.2 °F - 73.4 °F 94% 30.07 in 10.0 mi Calm Calm - N/A   Scattered Clouds
6:53 PM 75.0 °F - 73.0 °F 94% 30.06 in 10.0 mi East 3.5 mph - 0.00 in Rain Light Rain
7:40 PM 73.4 °F - 71.6 °F 94% 30.06 in 10.0 mi ENE 4.6 mph - 0.00 in   Mostly Cloudy
7:53 PM 73.9 °F - 72.0 °F 93% 30.06 in 10.0 mi ENE 4.6 mph - 0.00 in   Mostly Cloudy
8:43 PM 73.4 °F - 71.6 °F 94% 30.09 in 10.0 mi Calm Calm - N/A   Scattered Clouds
8:53 PM 73.9 °F - 72.0 °F 93% 30.09 in 10.0 mi Calm Calm - N/A   Partly Cloudy
9:53 PM 73.9 °F - 72.0 °F 93% 30.12 in 10.0 mi East 3.5 mph - N/A   Clear
10:53 PM 73.9 °F - 71.1 °F 91% 30.13 in 10.0 mi Calm Calm - N/A   Partly Cloudy
11:53 PM 73.9 °F - 71.1 °F 91% 30.12 in 10.0 mi Calm Calm - N/A   Clear